Temp
62 62 62 61 62 62 62 62 62 62 62 62 62 62 62 61 61 57 56 70 71 77 78 74 73 73 75 69 74 76 61 58 64 62 63 71 66 68 72 74 78 77 73 73 74
62 61 61 61 62 62 62 62 62 62 61 61 61 61 61 62 55 54 69 76 78 78 72 69 66 71 65 67 70 67 58 61 72 69 66 69 70 70 71 73 69 69 72 73 74
61 61 61 61 61 61 61 61 61 61 61 61 61 62 61 59 53 66 74 77 78 79 75 74 72 71 63 66 68 69 60 68 72 74 74 70 70 74 70 66 69 65 68 71 71
61 61 61 61 61 61 61 61 61 60 60 60 61 61 61 54 54 73 76 77 78 77 75 72 69 64 61 61 69 64 70 72 74 74 72 70 70 69 72 70 73 72 72 71 69
60 60 60 60 60 60 61 60 60 59 60 60 61 62 54 50 61 76 78 78 75 73 71 68 66 64 60 65 68 67 70 72 75 74 75 74 72 67 68 72 77 74 73 71 70
60 60 60 60 60 60 60 59 59 59 59 60 62 61 50 51 73 76 74 72 71 70 68 70 68 70 66 66 65 72 71 72 71 69 71 69 69 72 70 72 72 73 71 73 73
59 59 59 59 59 60 59 59 58 59 59 61 63 61 53 62 75 75 72 67 70 72 66 70 73 69 67 64 73 71 65 69 67 67 68 73 65 67 71 71 70 71 72 73 75
59 59 59 59 59 59 58 57 57 59 60 61 64 56 53 72 72 74 73 70 72 68 71 72 75 68 65 71 70 63 61 56 64 68 70 69 62 68 71 70 68 71 72 73 75
58 58 58 58 58 57 56 56 60 61 62 63 54 50 56 74 70 72 72 69 68 67 70 82 72 64 65 59 55 57 51 55 60 70 68 64 60 67 71 70 67 71 72 74 74
58 58 58 58 57 56 56 56 62 62 63 65 65 51 63 68 71 72 72 75 69 67 67 67 61 56 54 52 46 51 52 53 56 64 65 61 59 64 68 69 69 72 73 73 74
58 57 57 57 56 55 52 50 54 52 53 55 56 59 67 73 76 69 74 73 70 63 54 60 54 49 55 58 60 59 57 55 61 66 62 60 59 62 66 69 68 71 73 73 75
57 57 57 56 55 54 50 54 59 58 51 61 63 63 68 68 66 71 77 66 64 55 58 55 50 59 63 62 61 58 55 54 62 65 61 58 56 61 66 67 69 70 71 73 75
57 57 56 55 54 51 51 57 61 56 48 59 62 63 65 67 66 67 72 67 62 57 56 53 59 66 64 61 59 52 51 54 59 61 61 60 59 58 63 68 68 69 72 74 76
57 57 56 53 54 50 57 58 58 58 44 53 56 66 68 67 61 75 75 71 63 58 59 58 64 65 60 59 59 43 61 64 64 55 49 58 47 55 59 60 64 65 68 70 75
57 56 54 53 45 54 63 56 55 63 36 59 60 71 63 62 65 66 73 70 61 60 59 56 60 59 58 60 62 58 63 62 61 53 49 52 49 52 58 57 61 65 68 70 72
56 55 54 49 45 53 56 56 61 49 39 57 63 61 61 60 61 66 68 70 67 62 59 60 65 63 63 66 66 67 59 54 52 48 43 47 50 50 53 58 63 68 70 72 74
54 53 51 55 58 55 58 60 45 37 55 54 55 60 58 57 59 59 58 53 50 47 46 55 57 61 63 57 60 58 50 40 40 41 42 45 49 52 61 70 68 70 71 73 75
52 51 52 56 53 55 60 50 39 50 48 55 54 53 53 57 56 54 51 47 54 50 45 46 45 54 62 54 53 52 50 42 36 36 43 47 45 53 64 67 69 71 71 74 74
51 50 53 58 58 55 56 40 42 46 54 53 51 48 48 53 55 52 47 46 50 47 45 43 44 58 61 59 56 51 45 48 41 36 42 45 50 60 65 65 65 66 68 68 71
48 51 57 63 59 56 53 44 49 56 55 52 45 47 43 47 49 47 46 52 52 53 47 43 41 49 57 59 58 53 51 45 43 37 35 42 43 45 53 56 60 60 61 65 69
50 54 63 59 59 54 43 47 55 59 59 51 46 48 47 46 47 44 45 52 54 54 51 40 43 45 50 45 42 46 43 41 42 39 37 36 41 54 52 56 57 59 61 63 67
49 49 64 61 49 41 41 51 52 54 57 55 52 49 46 46 45 46 45 49 57 54 46 43 38 35 38 49 52 47 41 38 40 38 36 38 41 54 56 58 59 60 62 63 65
47 45 59 59 43 38 45 50 53 51 48 49 49 50 48 41 40 45 49 57 56 54 47 46 36 32 35 42 46 44 45 38 36 35 34 37 41 55 56 57 57 58 62 62 63
47 44 49 48 42 41 39 43 46 55 50 51 46 46 43 40 40 40 43 53 55 54 58 53 38 36 33 35 40 40 45 45 37 35 34 37 42 47 52 54 53 56 61 61 61
46 40 41 37 41 42 41 43 44 42 49 49 45 44 40 35 36 36 41 44 51 51 47 43 35 38 39 43 44 43 43 45 40 40 37 41 43 44 50 52 52 55 58 59 59
45 44 41 37 39 40 40 39 41 43 44 42 41 44 42 36 35 33 36 36 35 45 41 39 33 35 35 43 43 41 45 46 46 46 43 45 42 48 51 52 51 52 53 54 56
45 44 46 41 37 36 36 38 43 43 48 48 45 41 41 43 44 41 40 39 37 35 36 36 33 31 28 36 38 34 39 43 43 44 43 39 41 48 47 50 49 49 51 52 53
MSLP
1017.14 1016.79 1016.44 1016.06 1015.70 1015.28 1014.84 1014.45 1014.10 1013.82 1013.54 1013.30 1013.15 1013.02 1012.92 1012.76 1012.67 1012.80 1011.75 1009.24 1009.28 1009.28 1009.62 1010.43 1010.94 1011.04 1011.33 1011.52 1011.30 1011.05 1011.23 1010.68 1010.05 1010.07 1010.43 1010.72 1011.16 1011.16 1011.20 1011.16 1011.30 1011.64 1012.38 1013.78 1014.74
1017.11 1016.72 1016.32 1015.94 1015.60 1015.19 1014.78 1014.38 1014.02 1013.69 1013.39 1013.10 1012.92 1012.77 1012.66 1012.59 1012.62 1011.62 1008.53 1008.46 1008.78 1008.97 1009.74 1010.30 1011.09 1011.24 1011.60 1011.52 1011.34 1011.14 1010.92 1010.08 1009.43 1009.56 1009.96 1010.63 1010.88 1011.18 1011.37 1011.36 1012.22 1012.58 1013.26 1014.38 1015.04
1017.02 1016.64 1016.23 1015.84 1015.43 1015.08 1014.66 1014.28 1013.93 1013.57 1013.31 1013.02 1012.75 1012.58 1012.55 1012.55 1012.06 1008.58 1007.26 1008.07 1008.53 1008.86 1009.48 1010.16 1010.88 1011.22 1011.59 1011.53 1011.17 1010.68 1010.37 1009.56 1009.24 1009.30 1009.57 1010.32 1010.97 1011.10 1011.44 1011.79 1012.11 1012.81 1013.51 1014.65 1015.29
1016.85 1016.50 1016.13 1015.69 1015.30 1014.90 1014.47 1014.08 1013.79 1013.45 1013.17 1012.92 1012.72 1012.44 1012.32 1012.35 1010.30 1007.31 1007.16 1007.91 1008.48 1008.89 1009.59 1010.28 1010.98 1011.30 1011.51 1011.45 1010.94 1010.72 1009.82 1009.46 1009.03 1009.25 1009.65 1010.26 1010.80 1011.21 1011.48 1011.79 1012.42 1013.23 1013.91 1014.59 1015.40
1016.69 1016.28 1015.92 1015.53 1015.09 1014.66 1014.24 1013.88 1013.64 1013.29 1012.98 1012.82 1012.62 1012.48 1012.32 1011.40 1008.91 1007.14 1007.52 1008.08 1008.72 1009.26 1009.64 1010.15 1010.72 1011.02 1011.12 1010.96 1010.63 1010.50 1009.51 1009.02 1008.71 1009.12 1009.40 1010.06 1010.47 1011.05 1011.78 1012.12 1012.59 1013.42 1014.26 1014.86 1015.48
1016.60 1016.11 1015.66 1015.18 1014.74 1014.36 1013.92 1013.58 1013.28 1013.04 1012.75 1012.57 1012.48 1012.58 1012.15 1010.18 1007.26 1007.28 1007.64 1008.40 1008.80 1009.40 1009.81 1009.99 1010.24 1010.34 1010.58 1010.48 1010.26 1009.68 1009.48 1008.78 1008.64 1009.04 1009.44 1010.05 1010.68 1010.80 1011.92 1012.54 1012.88 1013.63 1014.20 1014.72 1015.08
1016.45 1015.94 1015.40 1014.92 1014.47 1014.02 1013.60 1013.17 1012.76 1012.58 1012.44 1012.26 1012.36 1012.36 1011.68 1008.48 1007.32 1007.59 1008.00 1008.51 1008.92 1009.26 1009.87 1009.88 1009.84 1010.12 1010.38 1010.30 1009.80 1009.34 1009.32 1008.82 1009.12 1009.24 1009.76 1010.07 1011.05 1010.83 1011.25 1012.15 1012.58 1013.24 1014.08 1014.32 1014.67
1016.24 1015.66 1015.06 1014.59 1014.11 1013.68 1013.26 1012.80 1012.10 1011.80 1011.89 1012.01 1012.11 1012.24 1010.38 1007.82 1007.55 1007.87 1008.15 1008.89 1009.32 1009.52 1009.66 1009.88 1009.92 1010.26 1010.39 1010.23 1009.79 1009.72 1009.56 1009.41 1009.64 1009.58 1009.89 1009.98 1010.39 1010.92 1011.35 1011.64 1012.36 1013.04 1013.56 1013.98 1014.34
1016.00 1015.47 1014.79 1014.26 1013.82 1013.36 1012.87 1012.34 1011.36 1010.90 1011.50 1011.86 1012.11 1012.13 1009.24 1007.77 1007.90 1007.72 1007.90 1008.67 1009.52 1009.87 1009.80 1009.82 1010.16 1010.65 1010.60 1010.72 1010.68 1010.56 1010.38 1009.93 1009.70 1009.59 1009.90 1010.57 1010.85 1011.26 1011.58 1011.86 1012.24 1012.55 1012.92 1013.43 1013.84
1015.54 1015.05 1014.46 1013.98 1013.54 1013.08 1012.58 1012.18 1011.54 1011.28 1011.89 1012.05 1011.66 1011.76 1008.59 1007.10 1006.75 1007.23 1008.01 1008.30 1009.26 1010.00 1010.41 1010.34 1010.82 1011.14 1011.45 1011.38 1011.28 1010.94 1010.71 1010.32 1009.94 1009.97 1010.02 1010.69 1011.22 1011.51 1011.52 1011.72 1012.02 1012.19 1012.59 1013.07 1013.30
1015.29 1014.64 1014.14 1013.56 1013.12 1012.82 1012.69 1012.05 1012.12 1011.74 1011.44 1010.37 1009.88 1009.35 1007.76 1006.58 1006.24 1006.99 1007.50 1008.14 1008.89 1009.84 1010.31 1010.54 1011.12 1011.10 1011.28 1011.04 1010.68 1010.62 1010.69 1010.53 1010.10 1009.86 1010.28 1010.43 1011.08 1011.59 1011.79 1011.99 1012.14 1012.34 1012.46 1012.66 1013.00
1014.82 1014.24 1013.72 1013.06 1012.57 1012.29 1012.45 1011.63 1010.52 1010.71 1010.28 1008.94 1008.76 1008.41 1007.37 1006.90 1006.45 1006.80 1007.19 1007.81 1008.84 1009.69 1010.12 1010.73 1010.58 1010.62 1010.65 1010.71 1010.66 1010.52 1010.55 1010.56 1010.16 1010.07 1010.60 1010.91 1011.49 1011.89 1012.13 1012.10 1012.16 1012.36 1012.52 1012.59 1012.90
1014.42 1013.83 1013.18 1012.40 1012.01 1011.91 1011.69 1010.58 1010.09 1010.31 1010.27 1008.36 1007.74 1007.17 1006.48 1006.61 1006.33 1006.48 1006.75 1007.28 1008.38 1009.30 1009.76 1009.92 1009.70 1009.85 1010.22 1010.22 1010.38 1010.50 1010.56 1010.56 1010.46 1010.67 1010.88 1011.23 1011.78 1012.09 1012.38 1012.46 1012.40 1012.30 1012.24 1012.29 1012.48
1014.03 1013.43 1012.74 1012.08 1011.82 1011.87 1010.86 1009.86 1009.77 1009.93 1009.92 1007.93 1006.88 1005.59 1005.84 1005.89 1005.97 1005.78 1006.05 1006.65 1007.77 1008.62 1009.34 1009.46 1009.21 1009.34 1009.66 1009.78 1010.13 1010.48 1010.22 1010.40 1010.64 1011.02 1011.45 1011.57 1012.32 1012.03 1012.04 1012.36 1012.28 1012.14 1011.94 1011.89 1012.00
1013.60 1013.10 1012.65 1012.46 1012.13 1011.50 1010.08 1009.67 1009.48 1009.62 1008.98 1007.02 1005.96 1004.95 1005.34 1005.86 1005.82 1006.04 1005.79 1006.26 1007.42 1008.18 1008.84 1009.12 1008.94 1009.09 1009.30 1009.36 1009.72 1010.16 1010.19 1010.60 1010.86 1011.45 1012.01 1012.12 1012.27 1011.64 1011.77 1011.98 1011.68 1011.34 1011.25 1011.24 1011.46
1013.14 1012.60 1012.49 1012.40 1012.09 1010.38 1009.65 1009.41 1009.42 1009.88 1008.32 1006.58 1005.60 1005.44 1005.92 1006.13 1006.19 1006.28 1006.39 1006.59 1007.40 1008.22 1008.68 1008.83 1008.54 1008.67 1008.62 1008.61 1009.08 1009.71 1010.64 1011.58 1012.16 1012.66 1012.94 1012.37 1012.31 1011.98 1011.55 1010.70 1010.48 1010.23 1010.33 1010.43 1010.78
1012.52 1012.00 1012.28 1011.58 1010.94 1010.00 1009.56 1009.52 1010.22 1009.74 1008.54 1007.74 1006.91 1006.35 1006.64 1007.10 1007.11 1007.32 1008.13 1008.81 1009.10 1009.55 1009.78 1009.53 1009.30 1009.10 1008.82 1008.88 1009.33 1010.11 1011.57 1013.02 1013.94 1014.25 1013.82 1012.72 1012.54 1012.12 1010.89 1009.83 1009.85 1009.28 1008.96 1009.57 1009.95
1011.86 1011.26 1011.34 1010.76 1010.16 1010.10 1009.88 1010.50 1010.74 1010.29 1009.51 1008.60 1008.14 1007.84 1008.24 1008.55 1008.78 1009.32 1009.92 1010.79 1010.62 1010.63 1011.23 1011.02 1010.92 1010.31 1009.88 1009.88 1009.99 1010.75 1011.59 1012.86 1013.95 1014.82 1014.27 1013.28 1012.52 1011.92 1011.06 1010.54 1009.78 1008.50 1008.55 1009.02 1009.43
1011.24 1011.06 1010.93 1009.96 1009.76 1010.04 1010.37 1011.31 1012.14 1011.52 1010.46 1009.72 1009.26 1009.47 1009.90 1009.74 1010.00 1010.75 1011.90 1012.43 1012.26 1011.89 1011.78 1012.15 1012.12 1011.39 1010.94 1010.92 1011.13 1011.59 1012.46 1013.08 1014.35 1015.47 1014.88 1014.00 1012.92 1012.08 1011.32 1010.92 1010.53 1010.37 1009.83 1009.56 1009.68
1011.99 1011.58 1010.68 1009.41 1009.56 1009.88 1010.68 1012.08 1012.19 1011.64 1010.94 1010.42 1010.77 1011.05 1011.54 1011.59 1011.60 1012.16 1013.04 1013.28 1013.06 1012.63 1012.25 1012.94 1013.30 1012.89 1012.34 1011.85 1012.06 1012.35 1013.70 1014.24 1014.94 1016.17 1016.14 1015.45 1014.95 1014.77 1013.62 1012.90 1012.40 1011.91 1011.51 1010.88 1009.78
1012.15 1011.88 1010.30 1009.64 1009.80 1010.97 1012.58 1012.86 1012.48 1011.87 1011.25 1011.30 1011.89 1012.27 1012.87 1013.02 1013.32 1013.85 1014.76 1014.13 1013.81 1013.40 1013.08 1013.71 1014.02 1014.72 1014.09 1015.54 1015.19 1014.50 1015.20 1015.90 1016.32 1016.80 1016.86 1016.84 1016.94 1016.39 1015.89 1015.14 1014.33 1013.59 1012.71 1011.42 1010.05
1012.69 1012.62 1010.50 1009.97 1011.66 1013.63 1014.24 1013.91 1013.71 1013.06 1012.46 1012.44 1012.73 1013.46 1014.08 1014.35 1014.95 1015.15 1015.67 1015.30 1014.58 1014.16 1014.55 1015.05 1016.16 1017.31 1017.51 1017.06 1016.62 1016.45 1017.20 1017.44 1017.61 1018.34 1017.96 1017.49 1017.81 1017.34 1016.82 1016.42 1015.71 1014.84 1013.71 1012.36 1011.17
1014.03 1013.78 1011.36 1011.03 1013.92 1015.35 1015.20 1014.95 1014.82 1014.33 1014.36 1014.19 1014.64 1014.91 1015.22 1015.91 1016.38 1016.47 1016.26 1015.96 1015.26 1015.10 1015.52 1015.70 1017.47 1018.52 1018.86 1018.18 1017.68 1017.97 1018.20 1018.19 1018.49 1018.57 1019.02 1018.55 1018.34 1017.74 1017.54 1017.14 1016.77 1015.93 1015.01 1014.13 1013.38
1014.89 1015.30 1014.66 1014.68 1016.14 1016.31 1016.47 1016.46 1015.88 1015.51 1015.79 1016.00 1016.37 1016.00 1016.37 1017.26 1017.25 1017.85 1017.57 1016.84 1016.52 1016.39 1016.24 1016.36 1018.53 1018.77 1019.13 1019.12 1019.15 1019.23 1018.86 1018.49 1018.81 1019.22 1019.80 1019.32 1018.77 1018.66 1018.48 1018.26 1017.78 1017.18 1016.45 1015.85 1015.28
1015.85 1017.50 1017.49 1017.75 1017.72 1017.68 1017.33 1017.52 1017.16 1016.95 1016.73 1016.87 1017.38 1017.78 1017.87 1018.54 1018.77 1019.03 1018.75 1018.24 1017.62 1017.60 1017.43 1018.11 1020.02 1020.15 1020.17 1019.85 1019.62 1019.56 1019.38 1019.04 1018.94 1019.19 1019.56 1019.72 1019.31 1019.62 1019.58 1019.56 1019.26 1018.70 1017.84 1017.08 1016.60
1016.77 1017.49 1017.98 1018.60 1018.58 1018.37 1018.42 1018.56 1018.13 1017.88 1017.68 1017.90 1018.34 1018.66 1018.49 1019.26 1019.68 1019.74 1019.66 1019.70 1019.73 1019.28 1019.52 1020.11 1021.31 1021.34 1021.50 1020.86 1020.33 1019.94 1019.53 1019.28 1019.17 1019.03 1019.39 1019.94 1020.14 1020.34 1020.30 1020.20 1019.93 1019.67 1019.10 1018.61 1018.14
1017.11 1017.35 1017.44 1019.18 1019.18 1019.07 1019.17 1018.84 1018.55 1018.27 1018.41 1018.38 1018.52 1018.79 1019.12 1019.55 1019.75 1019.96 1020.14 1020.53 1020.68 1020.89 1021.33 1021.57 1022.15 1022.70 1022.71 1021.98 1021.13 1020.82 1019.89 1019.52 1019.52 1019.57 1019.85 1020.35 1020.88 1020.84 1020.98 1020.94 1020.89 1020.58 1020.22 1019.91 1019.40
Wind_Speed
16 16 16 16 17 17 17 18 17 16 14 13 11 10 8 7 5 2 7 11 8 8 8 9 3 3 4 3 2 2 1 2 3 0 5 11 6 2 9 8 4 2 7 15 17
17 17 17 17 17 17 17 17 17 16 15 14 12 9 6 4 1 8 11 12 11 17 8 11 6 6 2 3 3 2 1 3 1 3 5 7 8 7 5 6 11 16 19 19 18
17 17 18 17 17 17 17 17 16 16 15 14 12 7 3 0 2 8 14 14 13 11 7 6 7 4 2 2 3 2 3 1 1 5 12 10 11 5 10 5 9 18 20 19 19
18 18 18 19 19 18 17 17 17 16 15 13 10 5 2 1 1 3 19 16 15 8 8 7 6 6 4 4 4 3 8 6 2 7 8 6 9 5 3 6 14 15 18 16 18
18 18 19 19 19 19 18 17 17 16 14 12 7 4 1 1 9 2 18 14 8 6 8 7 8 5 5 4 4 8 5 6 5 8 8 9 5 10 8 10 13 17 18 16 14
19 19 19 19 19 19 19 19 18 16 13 9 6 3 1 2 1 10 11 10 7 6 5 6 8 5 3 2 2 1 5 10 4 10 8 9 6 10 10 17 12 17 17 16 16
20 20 20 20 20 20 20 20 20 17 12 7 7 4 1 10 2 8 9 4 7 6 6 2 3 4 1 2 4 5 3 4 6 5 5 14 5 5 13 15 18 15 16 18 17
22 22 21 21 20 20 21 22 22 17 9 7 5 2 8 2 5 9 6 5 6 3 4 4 4 2 1 4 6 4 4 5 2 1 6 1 1 6 13 13 16 20 18 17 17
22 22 22 22 21 20 20 23 18 2 9 10 5 2 7 5 5 7 4 8 7 2 3 4 4 1 2 2 5 6 2 3 3 3 5 3 1 6 9 10 12 17 19 16 17
21 21 22 22 20 19 21 14 4 10 6 4 2 2 5 5 5 8 5 14 6 6 2 4 3 3 3 4 5 3 4 2 2 5 1 4 1 7 9 11 10 18 20 17 17
21 21 21 22 19 18 10 3 3 3 2 9 5 4 5 8 5 4 8 6 6 5 5 4 5 7 7 7 4 3 4 0 3 3 2 7 4 9 8 5 10 15 13 16 16
22 22 22 22 20 16 4 3 5 3 7 9 7 6 6 3 2 5 14 7 6 6 5 5 6 8 6 5 5 2 3 3 5 3 5 2 2 4 6 5 7 10 13 12 14
22 22 23 22 21 3 2 4 4 3 2 6 6 5 5 7 5 8 10 5 8 6 5 8 5 7 5 4 4 2 4 3 5 2 3 6 1 2 3 1 1 2 6 8 16
22 22 20 24 1 3 3 2 6 6 5 6 4 6 5 3 2 4 8 7 3 8 9 5 3 7 4 3 6 1 7 6 3 2 1 0 3 3 5 7 6 6 6 7 12
22 20 18 9 2 0 5 7 5 2 1 2 2 2 2 6 4 3 1 5 7 6 6 5 6 4 4 6 7 8 6 6 3 2 3 1 5 6 3 4 10 12 13 11 10
23 18 13 1 1 7 7 7 3 4 1 2 3 4 6 3 1 3 4 7 3 5 3 5 2 5 8 7 10 6 6 8 5 4 3 3 5 5 3 6 5 13 16 15 14
23 17 5 2 2 5 6 4 4 3 5 7 4 4 5 2 4 5 5 7 4 6 3 3 2 5 3 3 3 6 7 3 4 3 5 2 5 7 9 12 7 13 20 18 16
23 12 8 4 5 5 3 7 7 5 4 4 5 5 6 6 8 7 4 5 7 5 4 5 1 6 8 3 5 5 8 7 6 6 4 3 5 1 6 10 15 4 13 13 14
17 2 1 4 3 3 5 7 1 4 6 6 2 7 7 6 6 7 5 3 4 4 6 5 1 5 4 5 2 4 5 3 9 2 4 2 4 6 18 19 21 18 2 5 9
3 3 4 9 4 4 6 4 3 4 6 3 5 3 4 7 5 6 6 5 6 7 2 2 6 3 6 5 7 8 1 4 4 4 2 3 4 4 17 20 20 19 16 11 7
4 5 4 6 3 7 5 3 4 9 5 7 4 5 4 3 5 4 7 2 8 6 8 2 4 4 6 9 6 7 6 6 6 3 7 4 2 7 7 11 17 18 17 16 9
3 4 5 4 7 2 3 5 6 10 10 7 5 5 5 6 7 5 5 4 14 3 5 4 6 6 2 5 4 5 3 3 5 4 2 4 2 6 10 13 16 17 18 20 18
3 1 5 4 4 4 4 4 6 10 8 9 8 7 6 5 7 5 4 6 14 6 3 1 4 5 4 6 6 7 5 4 4 3 1 5 4 8 11 13 16 17 17 18 20
4 5 6 7 2 4 3 5 5 8 6 5 7 4 6 9 9 4 4 6 9 8 13 7 4 4 7 5 3 4 4 4 5 4 4 1 3 6 12 15 16 17 16 16 16
5 1 3 4 7 6 5 4 5 7 6 9 6 9 4 6 5 5 5 6 7 13 7 6 5 4 5 5 4 3 3 1 1 3 4 6 2 3 6 9 10 11 15 17 17
4 4 4 2 3 5 7 6 5 4 6 5 6 4 8 6 2 2 2 4 1 7 5 5 3 3 3 3 2 4 6 6 4 3 3 6 3 3 3 4 9 11 13 15 16
1 2 6 4 3 4 2 2 2 2 6 5 2 3 7 3 3 1 1 3 2 3 3 4 5 3 3 2 2 3 1 3 2 3 2 1 0 4 4 6 6 7 9 11 13
Wind_Direction
344 343 342 341 340 339 338 336 335 335 330 327 327 327 320 314 307 169 235 215 180 167 147 114 78 133 162 190 236 243 291 293 326 135 129 140 112 343 282 146 102 173 133 131 132
342 342 341 340 339 337 335 334 334 332 328 325 325 328 324 323 250 240 239 198 206 162 125 145 149 153 146 189 224 209 192 238 219 140 149 124 129 140 144 145 89 93 105 128 134
341 341 339 338 336 335 331 330 331 330 326 322 320 327 308 12 299 245 187 184 177 149 117 117 125 129 125 168 234 205 225 242 275 92 130 144 166 163 137 81 148 141 135 144 147
341 340 339 336 333 331 328 327 327 325 323 319 317 315 293 208 218 14 159 164 165 118 118 128 138 138 154 192 202 272 232 252 179 132 126 179 140 131 120 110 153 139 141 145 157
339 338 336 334 330 328 326 324 321 319 317 314 304 291 250 2 253 101 150 151 132 125 147 141 148 140 169 199 186 224 261 257 235 160 154 136 144 135 129 131 131 139 150 158 163
337 335 332 330 328 325 323 320 317 313 307 304 278 181 223 255 209 142 133 123 143 127 158 139 174 168 157 256 242 301 248 269 289 158 155 129 149 148 164 151 164 155 166 168 173
335 332 329 328 326 323 321 317 312 303 294 274 263 191 263 227 344 136 115 131 148 144 140 191 143 166 48 272 304 274 320 341 26 117 141 126 149 227 153 166 159 175 181 174 175
334 329 325 324 324 323 320 316 308 292 259 218 186 235 246 267 138 135 115 78 89 70 124 164 96 95 211 302 344 13 41 9 52 125 161 122 157 128 154 177 159 183 179 176 177
328 325 322 321 322 324 323 322 314 95 159 166 109 253 265 106 167 181 136 138 103 56 305 183 93 148 352 63 9 12 121 40 20 192 146 151 97 155 164 183 172 182 177 177 178
323 320 318 318 322 327 327 316 42 94 119 177 233 357 260 213 165 150 158 138 139 126 105 125 101 115 45 87 192 182 92 13 349 216 206 165 232 157 181 186 186 175 175 178 180
318 317 315 318 321 328 333 29 26 26 222 195 192 256 288 309 144 133 149 142 95 105 136 193 114 185 192 195 172 134 110 204 287 205 189 225 194 184 182 172 171 189 182 178 184
316 315 316 321 321 325 140 156 140 169 306 225 231 260 269 248 88 106 137 131 133 155 134 80 210 204 186 189 167 138 104 288 261 253 184 22 80 107 186 194 181 182 202 179 180
314 314 321 324 320 115 180 241 68 131 160 288 193 191 228 147 187 189 140 154 144 136 180 144 213 171 193 163 143 118 160 211 223 55 50 114 75 157 183 137 241 184 181 198 184
316 320 326 327 355 329 251 291 316 182 54 272 220 261 157 196 115 160 179 145 136 160 152 161 161 151 157 197 136 158 212 208 276 54 138 67 287 274 195 190 211 213 219 194 190
319 321 325 321 289 329 304 330 300 84 318 146 170 107 100 135 161 42 115 52 152 145 108 229 153 154 164 205 154 215 160 182 216 132 104 11 75 262 131 237 217 217 215 208 199
323 318 321 126 142 244 307 308 68 37 244 11 124 133 96 22 52 72 74 48 123 94 67 190 190 143 199 211 173 122 81 39 47 79 45 206 129 286 216 220 221 218 220 211 203
324 317 275 160 262 321 311 38 50 101 320 335 24 100 106 98 64 73 43 29 93 95 125 40 9 336 33 124 90 91 79 23 33 35 200 23 74 231 287 330 301 224 213 206 209
326 324 189 216 269 343 45 53 57 317 306 322 3 61 73 355 26 26 62 41 9 64 87 132 330 359 336 39 165 162 156 150 162 170 205 19 179 279 331 327 352 289 210 208 199
322 318 347 263 209 116 68 61 232 307 310 332 24 66 16 8 100 80 59 47 15 350 128 132 71 317 60 25 49 170 76 169 107 19 88 245 324 328 353 2 2 11 33 232 207
25 13 303 333 145 68 77 98 346 335 315 22 92 57 79 357 68 74 25 330 338 24 171 147 91 20 304 25 23 93 94 71 10 125 146 347 66 311 342 344 350 0 354 324 234
45 41 266 352 45 44 69 71 20 350 32 44 35 63 88 48 54 66 359 51 349 342 58 70 85 331 35 14 303 9 16 30 108 104 151 140 282 10 333 351 353 358 355 342 270
78 41 321 10 52 15 48 354 7 339 5 25 83 61 54 32 44 80 100 7 333 314 48 357 104 65 71 290 34 67 68 101 118 212 55 121 215 16 15 15 11 8 12 12 23
75 275 331 36 81 13 351 11 59 14 15 11 23 32 36 47 88 50 54 342 4 43 76 133 31 89 11 333 1 52 341 92 105 79 27 127 226 45 14 18 11 14 21 23 25
73 36 337 38 49 103 55 10 20 29 56 56 11 40 49 32 15 86 37 348 353 19 43 81 70 127 164 142 149 71 359 24 95 88 154 201 268 6 19 14 4 7 18 30 30
31 94 178 353 0 36 60 16 14 10 12 28 38 33 33 60 35 44 12 351 357 357 28 77 99 70 65 86 91 143 161 342 352 165 145 204 301 60 22 26 7 1 13 23 22
101 111 28 55 346 33 13 0 34 350 29 8 84 32 45 85 75 126 41 30 334 337 42 7 115 107 75 63 118 201 225 205 249 299 212 159 239 55 328 50 22 10 7 12 11
344 36 98 315 16 67 330 34 20 48 25 56 46 85 46 56 173 230 128 91 56 38 45 58 119 89 161 359 90 32 235 169 126 59 80 214 125 359 6 34 28 7 12 2 354